Regional Weather Roundup
Issued by NWS Upton, NY

Current Version | Previous Version | Text Only | Print | Product List | Glossary On
Versions: 1 2 3 4 5 6 7 8 9 10 11 12 13 14 15 16 17 18 19 20 21 22 23 24 25 26 27 28
000
ASUS41 KOKX 062208
RWROKX

REGIONAL WEATHER ROUNDUP
NATIONAL WEATHER SERVICE NEW YORK NY
500 PM EST TUE DEC 06 2016

NOTE: "FAIR" INDICATES FEW OR NO CLOUDS BELOW 12,000 FEET WITH NO
SIGNIFICANT WEATHER AND/OR OBSTRUCTIONS TO VISIBILITY.

NYZ071-072-176-178-NJZ106-104-062300-
NEW YORK CITY METRO AREA

CITY           SKY/WX    TMP DP  RH WIND       PRES   REMARKS
Central Park   CLOUDY    45  30  55 SE7       29.99R
Wall St Helipt CLOUDY    46  35  65 NE13      29.98R
Bronx Bot Gard NOT AVBL
LaGuardia APRT CLOUDY    47  31  53 E12       29.97R
Kennedy INTL   CLOUDY    46  32  58 NE7       29.98R
Breezy Point     N/A     43 N/A N/A E8          N/A
Newark/Liberty LGT RAIN  46  33  60 NE7       29.98R
Teterboro      LGT RAIN  45  30  55 E12       29.97R
$$

NYZ177-179-078>081-062300-
LONG ISLAND NEW YORK

CITY           SKY/WX    TMP DP  RH WIND       PRES   REMARKS
Jones Beach      N/A     45 N/A N/A E12         N/A
Matinecock PT    N/A     45 N/A N/A E6          N/A
Farmingdale    CLOUDY    44  31  60 E7        29.97S
MacArthur/ISP  CLOUDY    43  32  65 E9        29.96F
Shirley        CLOUDY    43  33  68 CALM      29.98F
Westhampton    CLOUDY    43  32  65 E7        29.99S
Southampton    NOT AVBL
Bridgehampton  NOT AVBL
East Hampton     N/A     43  32  64 E6        29.98F
Montauk          N/A     44  32  62 E6        30.00F
$$

NYZ052-065-067-062300-
HUDSON VALLEY

CITY           SKY/WX    TMP DP  RH WIND       PRES   REMARKS
White Plains   CLOUDY    42  30  62 E5        29.96R
Newburgh       CLOUDY    41  34  75 VRB5      29.97R
Montgomery     CLOUDY    41  32  70 NE3       29.96R
Poughkeepsie   CLOUDY    41  29  62 CALM      29.97R
Albany         CLOUDY    36  30  79 NE7       29.98S WCI  30
$$

NJZ001-105-106-008-010-013-015-019>022-104-062300-
NEW JERSEY

CITY           SKY/WX    TMP DP  RH WIND       PRES   REMARKS
Newark/Liberty LGT RAIN  46  33  60 NE7       29.98R
Teterboro      LGT RAIN  45  30  55 E12       29.97R
Caldwell       CLOUDY    43  32  65 E3        29.99R
Somerville     CLOUDY    43  33  68 NE3       29.95R
Linden         CLOUDY    45  32  61 E8        29.96S
Sussex         CLOUDY    41  29  62 CALM      29.96R
Andover          N/A     39  31  72 CALM      29.96R
Trenton        RAIN      41  36  82 NE7       29.93S
Millville      RAIN      44  44 100 NE10      29.87R FOG
Atlantic City  RAIN      47  42  83 E10       29.88R
Wrightstown    NOT AVBL
Toms River     RAIN      44  42  93 NE5       29.93R
Belmar         LGT RAIN  46  39  76 E8        29.95R
$$

PAZ047>061-062-071-062300-
EASTERN PENNSYLVANIA

CITY           SKY/WX    TMP DP  RH WIND       PRES   REMARKS
Philadelphia   RAIN      42  39  89 NE10      29.91F FOG
Allentown      RAIN      38  32  79 E8        29.92F WCI  32
Scranton       LGT RAIN  37  31  78 NE5       29.92S WCI  33
$$

CTZ002-004>006-009-010-012-RIZ004-006-007-MAZ004-011-015-062300-
SOUTHERN NEW ENGLAND
 IN CT

CITY           SKY/WX    TMP DP  RH WIND       PRES   REMARKS
Bradley INTL   CLOUDY    41  27  57 NE7       29.99R
Hartford       CLOUDY    42  29  59 SE5       29.99R
Danbury        CLOUDY    40  29  64 CALM      29.99R
Wtrbury/Oxford CLOUDY    39  27  60 CALM      29.98S
Bridgeport     PTCLDY    45  30  57 SE10      29.99S
Meriden        CLOUDY    44  28  53 CALM      29.98F
New Haven      CLOUDY    44  31  60 SE8       29.99S
Chester          N/A     41  30  65 CALM      29.98S
Groton         CLOUDY    45  31  58 E7        29.99S
Wilimantic     CLOUDY    41  31  67 NE3       29.99S

 IN RI

CITY           SKY/WX    TMP DP  RH WIND       PRES   REMARKS
Providence     CLOUDY    41  27  57 E5        30.01S
Block Island   PTCLDY    42  32  67 E9        29.99F
Westerly       CLOUDY    42  27  55 NE5       30.00F
 IN MA

CITY           SKY/WX    TMP DP  RH WIND       PRES   REMARKS
Boston         CLOUDY    40  30  67 E9        30.02F WCI  34
Worcester      CLOUDY    36  26  67 E3        29.97S
Westfield      CLOUDY    40  29  64 NE3       29.99S
Provincetown   PTCLDY    37  31  78 E5        30.03F WCI  33
Nantucket      CLOUDY    39  31  72 NE6       30.01F WCI  35
$$

ANZ330-335-338-340-345-350-353-355-062300-
COASTAL MARINE OBSERVATIONS


STATION/POSITION TIME  SKY/WX   TEMP    WIND        PRES    VSBY  WAVE
                                AIR SEA DIR/SP/G                  HT/PER
                 (UTC)          (F)     (DEG/KT/KT) (MB)    (MI)  (FT/S)
NY HARB ENTRANCE 2050            48 52  100/ 17/ 21 1013.7          3/ 4
20 S FIRE ISLAND 2050            48 54  100/ 17/ 19 1013.9          3/10
GREAT SOUTH BAY  2115            45 43                N/A
23 SSW MONTAUK P 2150            46 54  110/ 17/ 21 1014.9          3/ 4
15 E BARNEGAT LI 2130               53                N/A           5/ 5
HUDSON CANYON    2050            49 58              1013.9          5/11
KINGS POINT      2148            44 48              1014.8
EXECUTION ROCKS  2145            45     100/ 10/ 14   N/A
CENTRAL LI SOUND 2100            44 50  110/ 12/ 16   N/A           1
EASTERN LI SOUND NOT AVBL
ROBBINS REEF     2148            45      90/ 11/ 13 1015.1
$$


>>>>>>>>>>>>>>>>>>>>>>>>>>>> KEY <<<<<<<<<<<<<<<<<<<<<<<<<<<
>                                                          <
>     SKY/WX - Sky Condition/Present Weather               <
>     TMP    - Temperature in Fahrenheit                   <
>     DP     - Dew Point in Fahrenheit                     <
>     RH     - Relative Humidity in Percent                <
>     WIND   - Direction (from) and Speed in MPH           <
>     PRES   - Mean Sea Level Pressure (inches of Hg)      <
>     WCI    - Wind Chill Index                            <
>     VSB    - VISIBILITY IN MILES                         <
>     HX     - HEAT INDEX                                  <
>     TC     - TEMPERATURE IN CELSIUS                      <
>     VRB    - VARIABLE WIND DIRECTION                     <
>                                                          <
>>>>>>>>>>>>>>>>>>>>>>>>>>>> KEY <<<<<<<<<<<<<<<<<<<<<<<<<<<




USA.gov is the U.S. government's official web portal to all federal, state and local government web resources and services.